Syracuse, NY

11:29 AM EDT on May 21, 2018 (GMT -0400)
Syracuse Hancock International

Weather History for KSYR - April, 2010

Change the Weather History Date:

Sunday, April 25, 2010

  Actual Average Record
Temperature  
Mean Temperature 54 °F 50 °F  
Max Temperature 58 °F 61 °F 81 °F (1960)
Min Temperature 49 °F 40 °F 23 °F (1919)
Degree Days  
Heating Degree Days 11 15  
Month to date heating degree days 325 466  
Since 1 July heating degree days 5870 6254  
Cooling Degree Days 0 0  
Month to date cooling degree days 9 0  
Year to date cooling degree days 9 0  
Growing Degree Days 2 (Base 50)    
Moisture  
Dew Point 45 °F    
Average Humidity 69    
Maximum Humidity 83    
Minimum Humidity 55    
Precipitation  
Precipitation 0.02 in 0.10 in 0.74 in (1966)
Month to date precipitation 0.74 2.58  
Year to date precipitation 6.57 10.10  
Snow  
Snow 0.00 in 0.00 in 0.80 in (1971)
Month to date snowfall T 3.5  
Since 1 July snowfall 106.1 123.4  
Snow Depth 0.00 in    
Sea Level Pressure  
Sea Level Pressure 29.59 in    
Wind  
Wind Speed 7 mph (SE)    
Max Wind Speed 16 mph    
Max Gust Speed 20 mph    
Visibility 10 miles    
Events Rain    
T = Trace of Precipitation, MM = Missing Value Source: NWS Daily Summary

Daily Weather History Graph

Daily Weather History Graph

Search for Another Location

Airport or City:

Astronomy

Apr. 25, 2010 Rise Set
Actual Time 6:06 AM EDT 7:58 PM EDT
Civil Twilight 5:36 AM EDT 8:29 PM EDT
Nautical Twilight 4:59 AM EDT 9:06 PM EDT
Astronomical Twilight 4:18 AM EDT 9:47 PM EDT
Moon 5:01 PM EDT (4/25) 4:10 AM EDT (4/25)
Length of Visible Light 14h 53m
Length of Day
13h 51m
Waxing Gibbous, 89% of the Moon is Illuminated
Apr 25
Waxing Gibbous
Apr 28
Full
May 6
Last Quarter
May 13
New
May 20
First Quarter

Hourly Weather History & Observations

Time (EDT) Temp. Dew Point Humidity Pressure Visibility Wind Dir Wind Speed Gust Speed Precip Events Conditions
12:54 AM 57.0 °F 41.0 °F 55% 29.78 in 10.0 mi SW 8.1 mph - N/A   Overcast
1:54 AM 55.0 °F 42.1 °F 62% 29.77 in 10.0 mi SSW 8.1 mph - N/A   Overcast
2:54 AM 54.0 °F 41.0 °F 62% 29.75 in 10.0 mi South 5.8 mph - N/A   Overcast
4:54 AM 48.9 °F 41.0 °F 74% 29.70 in 10.0 mi SE 4.6 mph - N/A   Overcast
5:54 AM 50.0 °F 41.0 °F 71% 29.69 in 10.0 mi East 4.6 mph - N/A   Mostly Cloudy
6:54 AM 51.1 °F 42.1 °F 71% 29.68 in 10.0 mi ESE 5.8 mph - N/A   Overcast
7:54 AM 53.1 °F 44.1 °F 71% 29.67 in 10.0 mi SSE 9.2 mph - N/A   Overcast
8:54 AM 54.0 °F 45.0 °F 72% 29.65 in 10.0 mi SSE 9.2 mph - N/A   Overcast
9:54 AM 55.0 °F 46.0 °F 72% 29.63 in 10.0 mi SSE 6.9 mph - N/A   Overcast
10:54 AM 55.0 °F 45.0 °F 69% 29.63 in 10.0 mi SSE 8.1 mph - N/A   Overcast
11:04 AM 55.4 °F 46.4 °F 72% 29.63 in 10.0 mi SE 13.8 mph - N/A   Overcast
11:54 AM 55.0 °F 45.0 °F 69% 29.61 in 10.0 mi ESE 10.4 mph - N/A   Overcast
12:54 PM 55.9 °F 46.0 °F 69% 29.58 in 10.0 mi SSE 8.1 mph - N/A   Overcast
1:13 PM 57.2 °F 46.4 °F 67% 29.58 in 10.0 mi South 10.4 mph - N/A   Overcast
1:54 PM 57.0 °F 46.0 °F 67% 29.56 in 10.0 mi South 6.9 mph - N/A   Overcast
2:54 PM 55.9 °F 48.9 °F 77% 29.55 in 10.0 mi SSW 6.9 mph - 0.00 in Rain Light Rain
3:54 PM 57.0 °F 51.1 °F 81% 29.52 in 10.0 mi ESE 5.8 mph - 0.01 in Rain Light Rain
4:54 PM 57.9 °F 48.9 °F 72% 29.49 in 10.0 mi East 5.8 mph - 0.00 in   Overcast
5:54 PM 57.9 °F 46.9 °F 67% 29.49 in 10.0 mi SE 6.9 mph - N/A   Overcast
6:54 PM 57.0 °F 46.9 °F 69% 29.49 in 10.0 mi SSE 5.8 mph - N/A   Overcast
7:54 PM 55.9 °F 48.0 °F 75% 29.49 in 10.0 mi Calm Calm - 0.00 in Rain Light Rain
8:54 PM 54.0 °F 48.0 °F 80% 29.50 in 10.0 mi East 6.9 mph - 0.00 in Rain Light Rain
9:54 PM 53.1 °F 46.0 °F 77% 29.49 in 10.0 mi ESE 5.8 mph - 0.00 in Rain Light Rain
10:54 PM 53.1 °F 44.1 °F 71% 29.47 in 10.0 mi East 5.8 mph - 0.00 in   Overcast
11:54 PM 52.0 °F 46.9 °F 83% 29.45 in 10.0 mi East 5.8 mph - 0.00 in Rain Light Rain